"Time","Temp","Dewpoint","Humidity","Pressure","Direction","Speed","Gust","Precip","PrecipRate"
"00:04:56","48.7","46.8","93","30.18","42","0","0","0.00","0.00"
"00:09:56","48.6","46.7","93","30.18","42","0","0","0.00","0.00"
"00:14:56","48.4","46.7","93.5","30.18","42","0","0","0.00","0.00"
"00:19:59","48.3","46.7","94","30.18","42","0","0","0.00","0.00"
"00:24:58","48.2","46.6","94","30.18","42","0","0","0.00","0.00"
"00:29:58","48.1","46.5","94","30.18","42","0","0","0.00","0.00"
"00:34:59","48","46.4","94","30.18","42","0","0","0.00","0.00"
"00:39:59","47.9","46.3","94","30.18","42","0","0","0.00","0.00"
"00:44:58","47.8","46.2","94","30.18","42","0","0","0.00","0.00"
"00:49:57","47.7","46.1","94","30.17","42","0","0","0.00","0.00"
"00:54:57","47.6","46.1","94.6","30.17","42","0","0","0.00","0.00"
"00:59:56","47.5","46.1","95","30.17","42","0","0","0.00","0.00"
"01:04:57","47.4","46","95","30.17","42","0","0","0.00","0.00"
"01:09:57","47.3","45.9","95","30.17","42","0","0","0.00","0.00"
"01:14:56","47.2","45.8","95","30.17","42","0","0","0.00","0.00"
"01:19:56","47.2","45.8","95","30.17","42","0","0","0.00","0.00"
"01:24:59","47.1","45.7","95","30.17","42","0","0","0.00","0.00"
"01:29:58","46.9","45.5","95","30.17","42","0","0","0.00","0.00"
"01:34:57","46.9","45.5","95","30.17","42","0","0","0.00","0.00"
"01:39:57","46.8","45.4","95","30.17","42","0","0","0.00","0.00"
"01:44:56","46.8","45.4","95","30.17","42","0","0","0.00","0.00"
"01:49:59","46.8","45.4","95.2","30.17","42","0","0","0.00","0.00"
"01:54:59","46.8","45.6","95.6","30.17","42","0","0","0.00","0.00"
"01:59:58","46.7","45.4","95.3","30.17","42","0","0","0.00","0.00"
"02:04:58","46.7","45.5","95.7","30.16","42","0","0","0.00","0.00"
"02:09:58","46.4","45","95","30.16","42","0","0","0.00","0.00"
"02:14:58","46.2","44.8","95","30.16","42","0","0","0.00","0.00"
"02:19:57","46.1","44.7","95","30.16","42","0","0","0.00","0.00"
"02:24:57","46.2","45.1","96","30.16","42","0","0","0.00","0.00"
"02:29:59","46.1","44.9","95.7","30.17","42","0","0","0.00","0.00"
"02:34:59","46","44.6","95","30.17","42","0","0","0.00","0.00"
"02:39:58","45.9","44.7","95.7","30.17","42","0","0","0.00","0.00"
"02:44:57","45.9","44.7","95.5","30.17","42","0","0","0.00","0.00"
"02:49:56","45.8","44.4","95","30.16","42","0","0","0.00","0.00"
"02:54:59","45.6","44.4","95.2","30.16","42","0","0","0.00","0.00"
"02:59:58","45.6","44.5","96","30.16","42","0","0","0.00","0.00"
"03:04:57","45.6","44.5","96","30.16","42","0","0","0.00","0.00"
"03:09:57","45.4","44.3","96","30.16","42","0","0","0.00","0.00"
"03:14:57","45.3","44.1","95.6","30.16","42","0","0","0.00","0.00"
"03:19:56","45.2","44","95.4","30.16","42","0","0","0.00","0.00"
"03:24:59","45.1","44","96","30.16","42","0","0","0.00","0.00"
"03:29:58","45","43.9","96","30.16","42","0","0","0.00","0.00"
"03:34:58","45","43.9","96","30.16","42","0","0","0.00","0.00"
"03:39:58","44.9","43.8","96","30.16","42","0","0","0.00","0.00"
"03:44:58","44.9","43.8","96","30.16","42","0","0","0.00","0.00"
"03:49:59","44.9","43.8","96","30.16","42","0","0","0.00","0.00"
"03:54:58","44.9","43.8","96","30.16","42","0","0","0.00","0.00"
"03:59:57","44.8","43.7","96","30.17","42","0","0","0.00","0.00"
"04:04:59","44.8","43.7","96","30.17","42","0","0","0.00","0.00"
"04:09:59","44.8","43.7","96","30.17","42","0","0","0.00","0.00"
"04:14:59","44.8","43.7","96","30.17","42","0","0","0.00","0.00"
"04:19:58","44.7","43.6","96","30.16","42","0","0","0.00","0.00"
"04:24:57","44.5","43.4","96","30.16","42","0","0","0.00","0.00"
"04:29:59","44.4","43.3","96","30.16","42","0","0","0.00","0.00"
"04:34:59","44.3","43.2","96","30.16","42","0","0","0.00","0.00"
"04:39:58","44.2","43.1","96","30.16","42","0","0","0.00","0.00"
"04:44:57","44.3","43.2","96","30.17","42","0","0","0.00","0.00"
"04:49:56","44.4","43.3","96","30.17","42","0","0","0.00","0.00"
"04:54:56","44.3","43.2","96","30.17","42","0","0","0.00","0.00"
"04:59:59","44.3","43.2","96","30.17","42","0","0","0.00","0.00"
"05:04:56","44.1","43","96","30.17","42","0","0","0.00","0.00"
"05:09:55","44","42.9","96","30.17","42","0","0","0.00","0.00"
"05:14:59","43.9","42.8","96","30.17","42","0","0","0.00","0.00"
"05:19:59","43.9","42.8","96","30.17","42","0","0","0.00","0.00"
"05:24:58","43.9","42.8","96","30.17","42","0","0","0.00","0.00"
"05:29:57","43.8","42.7","96","30.17","42","0","0","0.00","0.00"
"05:34:56","43.8","42.7","96","30.17","42","0","0","0.00","0.00"
"05:39:56","43.7","42.6","96","30.17","42","0","0","0.00","0.00"
"05:44:59","43.7","42.6","96","30.17","42","0","0","0.00","0.00"
"05:49:59","43.7","42.6","96","30.17","42","0","0","0.00","0.00"
"05:54:58","43.7","42.8","96.7","30.17","36","0","0","0.00","0.00"
"05:59:57","43.8","43","97","30.17","36","0","0","0.00","0.00"
"06:04:58","43.8","42.8","96.2","30.17","36","0","0","0.00","0.00"
"06:09:58","43.8","42.7","96","30.17","36","0","0","0.00","0.00"
"06:14:58","43.7","42.7","96.2","30.18","36","0","0","0.00","0.00"
"06:19:57","43.7","42.8","96.7","30.18","36","0","0","0.00","0.00"
"06:24:56","43.8","43","97","30.18","333","0","1.2","0.00","0.00"
"06:29:58","44","43.2","97","30.18","355","0","1.2","0.00","0.00"
"06:34:57","44","43.2","97","30.18","310","0","0","0.00","0.00"
"06:39:56","44.1","43.3","97","30.18","310","0","1.2","0.00","0.00"
"06:44:59","44.1","43.3","97","30.19","310","0","0","0.00","0.00"
"06:49:58","44.2","43.4","97","30.19","310","0","0","0.00","0.00"
"06:54:57","44.4","43.6","97","30.19","310","0","0","0.00","0.00"
"06:59:59","44.6","43.8","97","30.19","310","0","0","0.00","0.00"
"07:04:59","44.9","44.1","97","30.19","306","0","1.2","0.00","0.00"
"07:09:59","45.3","44.5","97","30.19","306","0","0","0.00","0.00"
"07:14:58","45.8","45","97","30.19","306","0","0","0.00","0.00"
"07:19:57","46.3","45.6","97.4","30.19","306","0","0","0.00","0.00"
"07:24:56","47.1","46.6","98","30.19","301","0","1.2","0.00","0.00"
"07:29:59","47.9","47.4","98","30.20","301","0.1","1.2","0.00","0.00"
"07:34:57","48.5","48","98","30.20","301","0","0","0.00","0.00"
"07:39:57","48.9","48.2","97.3","30.20","301","0","0","0.00","0.00"
"07:44:59","49.2","48.4","97","30.20","301","0","0","0.00","0.00"
"07:49:58","49.7","49","97.3","30.20","302","0","0","0.00","0.00"
"07:54:57","50.3","49.6","97.4","30.20","302","0","0","0.00","0.00"
"07:59:57","50.9","50.2","97.3","30.20","302","0.1","1.2","0.00","0.00"
"08:04:57","51.5","50.7","97","30.20","302","0","1.2","0.00","0.00"
"08:09:57","52.3","51.3","96.3","30.20","316","0","0","0.00","0.00"
"08:14:56","53.2","51.7","94.7","30.21","244","0","0","0.00","0.00"
"08:19:59","53.8","51.8","92.9","30.21","244","0","0","0.00","0.00"
"08:24:58","54.3","52","92","30.21","244","0","0","0.00","0.00"
"08:29:56","55","52.6","91.9","30.21","248","0","0","0.00","0.00"
"08:34:58","55.8","52.7","89.3","30.20","248","0","0","0.00","0.00"
"08:39:58","56.6","52.9","87.5","30.20","248","0","0","0.00","0.00"
"08:44:56","57.2","52.8","85.1","30.21","248","0","0","0.00","0.00"
"08:49:56","57.8","52.9","83.5","30.21","248","0","0","0.00","0.00"
"08:54:59","58.2","53.1","83.2","30.21","248","0","0","0.00","0.00"
"08:59:58","58.7","53.5","82.7","30.21","248","0","0","0.00","0.00"
"09:04:58","59.2","53.7","82.1","30.20","248","0","0","0.00","0.00"
"09:09:57","60","54.6","82.1","30.20","248","0","0","0.00","0.00"
"09:14:57","61","54.6","79.6","30.21","248","0","0","0.00","0.00"
"09:19:56","61.3","54.3","77.7","30.21","272","0.6","3.6","0.00","0.00"
"09:24:59","61.7","54.7","77.8","30.21","283","0.4","3.6","0.00","0.00"
"09:29:57","62.2","55.4","78.2","30.21","291","0.6","3.6","0.00","0.00"
"09:34:56","62.7","54.9","75.7","30.20","308","1.8","4.8","0.00","0.00"
"09:39:59","62.9","55.3","76.3","30.20","286","2.3","4.6","0.00","0.00"
"09:44:58","63.2","55.1","74.9","30.20","321","1.7","4.8","0.00","0.00"
"09:49:56","63.9","56.5","76.9","30.20","314","0.5","2.4","0.00","0.00"
"09:54:58","64.9","56.9","75.3","30.20","313","0.7","2.4","0.00","0.00"
"09:59:56","66.1","56.8","72.1","30.20","25","1.6","3.6","0.00","0.00"
"10:04:56","66.8","56.1","68.6","30.19","17","0.7","3.5","0.00","0.00"
"10:09:59","67.4","57","69.2","30.19","12","0.6","6","0.00","0.00"
"10:14:58","68.1","56.7","67.1","30.19","355","1.3","6","0.00","0.00"
"10:19:57","68.2","57","67.6","30.19","35","1.2","3.6","0.00","0.00"
"10:24:59","68.4","56.7","66.3","30.19","229","2.1","3.6","0.00","0.00"
"10:29:57","69.2","56.3","63.8","30.19","320","2.2","4.8","0.00","0.00"
"10:34:59","69.5","55.4","60.8","30.18","332","2.2","6","0.00","0.00"
"10:39:58","69.2","54.8","60.1","30.18","325","1.1","3.5","0.00","0.00"
"10:44:56","69.3","55.5","61.5","30.19","215","1.7","4.8","0.00","0.00"
"10:49:59","69.7","56.9","63.8","30.19","210","1.3","3.6","0.00","0.00"
"10:54:57","70.2","56.6","61.9","30.19","241","1.6","3.6","0.00","0.00"
"10:59:59","70.1","56.2","61.4","30.19","257","1.5","4.8","0.00","0.00"
"11:04:59","70.2","56.1","61","30.18","327","1.7","4.6","0.00","0.00"
"11:09:58","70.2","56.7","62.4","30.18","242","2.1","3.6","0.00","0.00"
"11:14:57","70.5","56.9","62.1","30.18","224","1.9","3.6","0.00","0.00"
"11:19:59","70.9","57.7","63.2","30.18","256","1.4","3.6","0.00","0.00"
"11:24:58","71.2","57.1","61","30.18","225","2.5","3.6","0.00","0.00"
"11:29:58","71.4","57.7","62","30.18","202","2.7","6","0.00","0.00"
"11:34:57","72.1","58.4","62.1","30.18","234","1.6","4.8","0.00","0.00"
"11:39:56","72.3","57.8","60.5","30.18","206","2.4","4.8","0.00","0.00"
"11:44:58","72.2","58.1","61.2","30.18","189","2","4.8","0.00","0.00"
"11:49:57","72.3","56.6","57.8","30.18","197","1.6","3.6","0.00","0.00"
"11:54:59","72.2","57.5","60","30.18","321","2","4.8","0.00","0.00"
"11:59:58","72.4","57.3","59.2","30.18","238","1.6","4.8","0.00","0.00"
"12:04:58","72.7","58.2","60.5","30.17","215","1.3","3.6","0.00","0.00"
"12:09:57","73","58","59.5","30.17","199","1.9","4.8","0.00","0.00"
"12:14:56","73.2","57.6","58.1","30.17","197","1.1","4.6","0.00","0.00"
"12:19:58","73.2","58.6","60.2","30.17","223","1.8","4.8","0.00","0.00"
"12:24:56","73.4","58.8","60.3","30.17","242","2","4.8","0.00","0.00"
"12:29:59","73.5","58.5","59.5","30.17","246","1.5","4.6","0.00","0.00"
"12:34:57","73.4","57","56.6","30.17","246","0.6","3.6","0.00","0.00"
"12:39:58","73.5","58.3","58.9","30.17","185","1.1","3.6","0.00","0.00"
"12:44:59","74.1","59.9","61.4","30.17","188","1.6","3.6","0.00","0.00"
"12:49:53","74.9","60.2","60.3","30.16","219","1.4","4.8","0.00","0.00"
"12:54:56","74.9","58.8","57.4","30.16","204","2.5","4.8","0.00","0.00"
"12:59:58","74.7","60.2","60.5","30.16","236","3.2","6","0.00","0.00"
"13:04:58","74.7","59.4","59.2","30.16","243","2.5","6","0.00","0.00"
"13:09:57","74.7","59.8","59.9","30.16","208","1.7","4.8","0.00","0.00"
"13:14:57","75.2","60","59.2","30.16","224","3.6","6","0.00","0.00"
"13:19:59","75.4","60","58.9","30.16","247","1.5","4.6","0.00","0.00"
"13:24:58","75.2","59.2","57.7","30.16","195","2.3","6","0.00","0.00"
"13:29:56","75.1","58.6","56.6","30.16","329","3.2","6","0.00","0.00"
"13:34:59","75.8","60.3","58.8","30.16","4","1.4","4.8","0.00","0.00"
"13:39:58","76.1","60","57.6","30.16","2","1.7","3.6","0.00","0.00"
"13:44:57","76.6","59.8","56.2","30.16","274","1.4","4.8","0.00","0.00"
"13:49:56","76.5","59.4","55.6","30.16","268","1.7","4.6","0.00","0.00"
"13:54:58","76.5","59.3","55.4","30.16","223","1.9","4.8","0.00","0.00"
"13:59:57","76.3","60.3","57.9","30.16","192","2.9","4.8","0.00","0.00"
"14:04:56","75.8","60.1","58.4","30.15","181","3","6","0.00","0.00"
"14:09:56","75.7","58.7","55.5","30.15","182","1.4","4.6","0.00","0.00"
"14:14:55","76","59.6","56.9","30.15","181","0.9","2.4","0.00","0.00"
"14:19:58","76.1","60.2","57.9","30.15","180","1","2.4","0.00","0.00"
"14:24:57","76.4","60.1","57","30.15","180","0.7","2.4","0.00","0.00"
"14:29:59","76.7","60.6","57.8","30.15","184","1.3","3.6","0.00","0.00"
"14:34:58","76.6","61.1","58.8","30.15","232","2.5","4.8","0.00","0.00"
"14:39:57","76.8","60.3","56.8","30.15","245","2","4.6","0.00","0.00"
"14:44:56","77","61.1","57.9","30.15","196","1.2","4.8","0.00","0.00"
"14:49:59","77.1","60.4","56.3","30.14","169","0.4","2.4","0.00","0.00"
"14:54:57","77.4","61.6","58.3","30.14","183","2.1","6","0.00","0.00"
"14:59:56","77.3","60.9","57","30.14","183","3.2","6","0.00","0.00"
"15:04:59","77.7","62.3","59.1","30.14","190","2.2","4.8","0.00","0.00"
"15:09:59","77.9","61.6","57.5","30.14","185","2.2","6","0.00","0.00"
"15:14:58","77.7","61.8","58","30.14","172","1.4","4.8","0.00","0.00"
"15:19:57","78.1","62.2","58.2","30.13","359","2.1","6","0.00","0.00"
"15:24:59","78.6","61","54.8","30.13","307","2.2","4.8","0.00","0.00"
"15:29:58","78.4","61.2","55.6","30.13","273","1.6","4.8","0.00","0.00"
"15:34:56","78.5","60.9","54.8","30.13","201","2","4.8","0.00","0.00"
"15:39:56","78.8","60.7","54.1","30.13","234","2.9","8.4","0.00","0.00"
"15:44:59","78.6","61.4","55.6","30.13","218","3.7","6.9","0.00","0.00"
"15:49:58","78.8","60.5","53.6","30.12","183","3.6","7.2","0.00","0.00"
"15:54:57","78.7","60.7","54.2","30.12","205","3.7","8.4","0.00","0.00"
"15:59:56","78.8","60.4","53.4","30.12","207","3.1","7.2","0.00","0.00"
"16:04:57","78.8","60.5","53.5","30.12","193","3.3","8.4","0.00","0.00"
"16:09:58","79.2","61.4","54.6","30.12","226","1.5","4.8","0.00","0.00"
"16:14:59","79.4","60.3","52.2","30.12","223","2.8","6","0.00","0.00"
"16:19:59","79.2","60.7","53.2","30.11","206","1.8","6","0.00","0.00"
"16:24:59","79.2","60.2","52.4","30.11","184","3.6","6","0.00","0.00"
"16:29:56","79.2","59.4","50.7","30.11","185","2.6","6","0.00","0.00"
"16:34:56","79.3","59.6","51.1","30.11","197","3.8","7.2","0.00","0.00"
"16:39:57","79.1","59.5","51.2","30.11","216","2","4.8","0.00","0.00"
"16:44:58","79.2","59","50","30.11","226","0.6","3.6","0.00","0.00"
"16:49:58","79.4","59.3","50.3","30.11","215","1.7","4.8","0.00","0.00"
"16:54:58","79.7","59.9","50.8","30.11","203","3.3","6","0.00","0.00"
"16:59:58","79.7","59.2","49.7","30.11","205","3.6","6","0.00","0.00"
"17:04:56","79.5","58.6","48.9","30.10","196","2","4.8","0.00","0.00"
"17:09:57","79.7","59.9","50.9","30.10","207","2.4","6","0.00","0.00"
"17:14:57","79.9","60.3","51.4","30.10","188","2.8","7.2","0.00","0.00"
"17:19:57","80","59.7","50.1","30.10","186","0.6","4.6","0.00","0.00"
"17:24:57","80.1","59.5","49.5","30.10","196","2.2","6","0.00","0.00"
"17:29:57","79.8","60.1","51.1","30.10","173","2.6","6","0.00","0.00"
"17:34:58","79.4","59","49.8","30.10","193","3","7.2","0.00","0.00"
"17:39:59","79.2","59.2","50.4","30.10","191","2.4","6","0.00","0.00"
"17:44:59","79.2","59.5","50.9","30.10","193","2.1","8.4","0.00","0.00"
"17:49:59","79.1","59","50.4","30.10","185","4.2","8.1","0.00","0.00"
"17:54:59","78.8","58.5","50","30.10","194","3.4","6.9","0.00","0.00"
"17:59:57","78.7","58.9","50.8","30.10","201","1.4","3.6","0.00","0.00"
"18:04:58","78.8","59.3","51.4","30.10","210","2.4","4.8","0.00","0.00"
"18:09:58","78.7","57.9","48.9","30.10","219","2.4","4.8","0.00","0.00"
"18:14:57","78.4","58","49.5","30.10","231","0.8","3.6","0.00","0.00"
"18:19:56","78.1","57.2","48.6","30.10","200","1.9","6","0.00","0.00"
"18:24:58","77.8","57.1","49.1","30.10","163","1.7","3.6","0.00","0.00"
"18:29:56","77.5","56.7","48.7","30.10","121","0.8","3.5","0.00","0.00"
"18:34:59","77.4","56.8","49.3","30.10","121","1","3.6","0.00","0.00"
"18:39:59","77.2","56.2","48.4","30.10","132","1.7","3.6","0.00","0.00"
"18:44:57","76.9","55.6","47.8","30.10","134","1.5","3.5","0.00","0.00"
"18:49:59","76.7","55.2","47.4","30.09","134","1.7","3.6","0.00","0.00"
"18:54:58","76.6","55.7","48.5","30.09","134","1.4","2.4","0.00","0.00"
"18:59:57","76.4","56.3","50","30.09","134","1.1","2.4","0.00","0.00"
"19:04:57","76.2","57.1","51.7","30.09","134","1.6","2.4","0.00","0.00"
"19:09:56","75.9","57","52","30.09","134","1.7","3.6","0.00","0.00"
"19:14:56","75.6","57.1","52.5","30.09","134","1.2","2.4","0.00","0.00"
"19:19:58","75.3","57.6","54.1","30.09","134","0.4","2.4","0.00","0.00"
"19:24:57","74.9","56.5","52.8","30.09","134","0","0","0.00","0.00"
"19:29:56","74.6","56.2","52.8","30.09","134","0","0","0.00","0.00"
"19:34:59","74.2","56.6","54.2","30.09","134","0","0","0.00","0.00"
"19:39:58","73.6","56.9","56","30.09","134","0","0","0.00","0.00"
"19:44:58","72.8","56.4","56.5","30.09","134","0","0","0.00","0.00"
"19:49:57","72","56.6","58.2","30.09","134","0","0","0.00","0.00"
"19:54:56","71.5","56.6","59.6","30.09","134","0","0","0.00","0.00"
"19:59:56","70.9","57","61.4","30.10","136","0","0","0.00","0.00"
"20:04:56","70.4","57.2","63.2","30.10","138","0","1.2","0.00","0.00"
"20:09:56","69.7","57.2","64.3","30.10","138","0","1.2","0.00","0.00"
"20:14:56","69.2","56.8","64.6","30.10","138","0.3","1.2","0.00","0.00"
"20:19:58","68.9","57.3","66.5","30.10","138","0.7","1.2","0.00","0.00"
"20:24:58","68.6","57.4","67.6","30.10","138","0","1.2","0.00","0.00"
"20:29:57","68.1","57.6","69.1","30.10","118","0","1.2","0.00","0.00"
"20:34:56","67.6","57.4","69.9","30.10","118","0","1.2","0.00","0.00"
"20:39:56","67","57.7","71.9","30.10","118","0","0","0.00","0.00"
"20:44:56","66.4","57.4","72.7","30.10","118","0","0","0.00","0.00"
"20:49:59","65.9","57","73.2","30.10","118","0","0","0.00","0.00"
"20:54:57","65.5","57.1","74.3","30.10","118","0.2","1.2","0.00","0.00"
"20:59:57","65.2","57","74.8","30.11","118","0","0","0.00","0.00"
"21:04:57","64.9","56.9","75.2","30.11","118","0","0","0.00","0.00"
"21:09:57","64.4","57","76.7","30.11","118","0","1.2","0.00","0.00"
"21:14:57","64","56.8","77.5","30.11","118","0","1.2","0.00","0.00"
"21:19:56","63.5","56.7","78.5","30.11","118","0","0","0.00","0.00"
"21:24:59","63.1","56.5","79","30.11","118","0","0","0.00","0.00"
"21:29:58","62.7","56.6","80.3","30.12","118","0","0","0.00","0.00"
"21:34:58","62.5","56.6","81","30.12","118","0","0","0.00","0.00"
"21:39:58","62.4","56.6","81.1","30.12","118","0","0","0.00","0.00"
"21:44:57","62.2","56.4","81.3","30.13","118","0","0","0.00","0.00"
"21:49:56","61.9","56.3","82","30.13","118","0","0","0.00","0.00"
"21:54:59","61.5","56.4","83.2","30.13","118","0","0","0.00","0.00"
"21:59:58","61.3","56.4","84","30.13","118","0.1","1.2","0.00","0.00"
"22:04:59","61","56.3","84.4","30.13","118","0","0","0.00","0.00"
"22:09:58","60.7","56.2","85","30.13","118","0","0","0.00","0.00"
"22:14:58","60.5","56.2","85.7","30.13","118","0","0","0.00","0.00"
"22:19:57","60.3","56.1","86","30.13","118","0.2","1.2","0.00","0.00"
"22:24:56","60","55.9","86.5","30.13","118","0","0","0.00","0.00"
"22:29:59","59.8","55.9","87","30.13","118","0.1","1.2","0.00","0.00"
"22:34:58","59.7","56.1","88","30.13","118","0","0","0.00","0.00"
"22:39:58","59.6","56","88","30.13","118","0","0","0.00","0.00"
"22:44:57","59.4","55.8","88","30.13","118","0.6","1.2","0.00","0.00"
"22:49:58","59.3","55.7","88","30.13","118","0.9","2.4","0.00","0.00"
"22:54:58","59.2","55.6","88","30.13","118","0","0","0.00","0.00"
"22:59:59","59.1","55.5","88","30.13","118","0","0","0.00","0.00"
"23:04:59","58.9","55.6","88.7","30.13","118","0","0","0.00","0.00"
"23:09:59","58.6","55.4","89","30.13","118","0","0","0.00","0.00"
"23:14:59","58.4","55.3","89.4","30.13","118","0","0","0.00","0.00"
"23:19:58","58.2","55.3","90","30.13","118","0","0","0.00","0.00"
"23:24:58","58","55.1","90","30.13","118","0","0","0.00","0.00"
"23:29:56","57.8","55.1","90.9","30.13","117","0.8","2.4","0.00","0.00"
"23:34:59","57.6","55","91","30.13","117","1.6","2.4","0.00","0.00"
"23:39:59","57.5","54.9","91","30.13","117","0.5","2.4","0.00","0.00"
"23:44:59","57.4","54.8","91","30.13","117","0","1.2","0.00","0.00"
